sat.trackr.live / text

‹ back to catalog

STARLINK-35706

NORAD 67051 · 2025-294X

PAYLOAD ACTIVE UNKNOWN

§ Identity

Operator
Country
US
Launch date
2025-12-11
Launch site
AFETR
Launch vehicle
Mass (kg)
RCS (m²)

Purposes: comms

External: N2YO · Heavens-Above · Gunter

§ Orbital elements

Epoch: 2026-09-20T08:59:09.162240Z

Period
94.27 min
Inclination
42.9999°
Eccentricity
0.0000862
Mean motion
15.27586348 rev/d
Perigee alt
482.4 km
Apogee alt
483.6 km
Semi-major
6,861.2 km
B*
3.6897e-4
RAAN
18.5984°
Arg perigee
247.3348°
Mean anomaly
112.7412°
Rev number
4,457

§ Raw data

STARLINK-357061 67051U 25294X   26263.37441160  .00009907  00000+0  36897-3 0  99962 67051  42.9999  18.5984 0000862 247.3348 112.7412 15.27586348 44572

JSON: /api/v1/satellites/67051 · /tle

For live sub-satellite position, see the globe view (requires WebGL).

§ Visibility from observer

Set your observer location to see the next 7 days of passes ≥ 10°. The values pass through the URL so the page stays shareable.

No JS? Fill the form by hand. The geolocation button needs JavaScript.